QPF
0.02 0.03 0.03 0.03 0.02 0.01 0.01 0.00 0.00 0.00 0.00 0.00 0.00 0.00 0.00 0.00 0.00 0.00 0.00 0.01 0.01 0.01 0.02 0.02 0.02 0.03 0.03 0.04 0.06 0.06 0.08 0.08 0.07 0.07 0.08 0.06 0.04 0.03
0.01 0.02 0.02 0.01 0.02 0.02 0.01 0.01 0.01 0.01 0.00 0.00 0.00 0.00 0.00 0.00 0.00 0.00 0.00 0.00 0.01 0.01 0.01 0.01 0.01 0.02 0.02 0.02 0.03 0.04 0.06 0.07 0.07 0.07 0.08 0.09 0.08 0.07
0.01 0.01 0.01 0.01 0.02 0.02 0.02 0.01 0.01 0.01 0.00 0.00 0.00 0.00 0.00 0.00 0.00 0.00 0.00 0.00 0.01 0.01 0.01 0.01 0.01 0.01 0.01 0.01 0.02 0.02 0.03 0.04 0.04 0.04 0.04 0.05 0.08 0.11
0.01 0.01 0.01 0.01 0.01 0.01 0.01 0.01 0.01 0.01 0.00 0.00 0.00 0.00 0.00 0.00 0.00 0.00 0.00 0.00 0.00 0.00 0.01 0.01 0.01 0.01 0.02 0.02 0.02 0.02 0.02 0.02 0.02 0.01 0.01 0.01 0.01 0.03
0.01 0.01 0.01 0.00 0.00 0.01 0.01 0.01 0.02 0.02 0.01 0.00 0.00 0.00 0.00 0.00 0.00 0.00 0.00 0.00 0.00 0.00 0.00 0.00 0.01 0.01 0.01 0.01 0.01 0.02 0.01 0.01 0.00 0.00 0.01 0.01 0.01 0.01
0.02 0.01 0.01 0.01 0.01 0.01 0.01 0.02 0.02 0.02 0.02 0.01 0.01 0.00 0.00 0.00 0.00 0.00 0.00 0.00 0.00 0.00 0.01 0.01 0.01 0.01 0.01 0.01 0.01 0.01 0.02 0.02 0.01 0.01 0.01 0.01 0.01 0.01
0.01 0.01 0.01 0.01 0.01 0.01 0.01 0.02 0.02 0.01 0.02 0.02 0.01 0.01 0.01 0.00 0.00 0.01 0.01 0.00 0.00 0.00 0.00 0.01 0.01 0.01 0.01 0.02 0.02 0.01 0.02 0.02 0.02 0.02 0.02 0.02 0.01 0.01
0.00 0.01 0.01 0.00 0.01 0.01 0.02 0.01 0.02 0.02 0.02 0.02 0.02 0.01 0.01 0.01 0.01 0.00 0.01 0.01 0.01 0.01 0.01 0.01 0.02 0.01 0.01 0.01 0.02 0.02 0.02 0.03 0.03 0.03 0.04 0.04 0.03 0.02
0.00 0.01 0.01 0.01 0.01 0.01 0.01 0.01 0.01 0.02 0.02 0.02 0.02 0.01 0.01 0.01 0.01 0.01 0.01 0.01 0.01 0.02 0.02 0.01 0.01 0.01 0.02 0.02 0.03 0.04 0.04 0.04 0.04 0.03 0.03 0.03 0.03 0.03
0.01 0.01 0.01 0.01 0.01 0.01 0.01 0.01 0.01 0.02 0.02 0.02 0.02 0.02 0.01 0.01 0.02 0.02 0.02 0.02 0.01 0.02 0.01 0.01 0.01 0.01 0.02 0.02 0.03 0.04 0.05 0.06 0.06 0.05 0.03 0.03 0.03 0.03
0.01 0.02 0.02 0.02 0.03 0.03 0.02 0.01 0.01 0.01 0.03 0.03 0.03 0.02 0.02 0.03 0.04 0.03 0.02 0.02 0.01 0.01 0.01 0.01 0.01 0.02 0.02 0.03 0.03 0.04 0.04 0.04 0.04 0.04 0.04 0.03 0.03 0.03
0.02 0.02 0.02 0.02 0.02 0.03 0.02 0.01 0.01 0.01 0.03 0.03 0.02 0.02 0.02 0.02 0.03 0.03 0.02 0.02 0.01 0.01 0.01 0.02 0.02 0.03 0.04 0.04 0.04 0.04 0.03 0.03 0.03 0.03 0.05 0.05 0.04 0.03
0.01 0.01 0.01 0.02 0.02 0.02 0.02 0.01 0.01 0.02 0.02 0.02 0.02 0.01 0.01 0.01 0.02 0.03 0.03 0.02 0.02 0.02 0.02 0.04 0.03 0.03 0.03 0.03 0.04 0.04 0.03 0.03 0.04 0.04 0.05 0.06 0.07 0.05
0.01 0.01 0.01 0.01 0.01 0.01 0.01 0.01 0.01 0.02 0.02 0.02 0.02 0.02 0.01 0.01 0.02 0.02 0.03 0.02 0.02 0.03 0.04 0.05 0.05 0.06 0.07 0.06 0.05 0.05 0.05 0.05 0.05 0.06 0.06 0.06 0.06 0.07
0.02 0.01 0.01 0.01 0.01 0.01 0.02 0.02 0.01 0.01 0.01 0.02 0.02 0.01 0.02 0.02 0.02 0.03 0.03 0.03 0.03 0.03 0.05 0.06 0.06 0.07 0.07 0.06 0.06 0.07 0.07 0.07 0.06 0.06 0.07 0.06 0.04 0.04
0.02 0.02 0.01 0.01 0.01 0.01 0.01 0.01 0.01 0.01 0.01 0.01 0.01 0.01 0.02 0.02 0.02 0.02 0.02 0.03 0.03 0.04 0.04 0.05 0.06 0.07 0.06 0.06 0.05 0.05 0.06 0.07 0.06 0.05 0.05 0.05 0.05 0.04
0.02 0.02 0.01 0.01 0.01 0.01 0.01 0.01 0.01 0.01 0.01 0.01 0.01 0.01 0.02 0.02 0.02 0.02 0.02 0.02 0.03 0.03 0.04 0.05 0.05 0.06 0.05 0.05 0.04 0.03 0.05 0.06 0.07 0.08 0.08 0.07 0.07 0.06
0.03 0.01 0.01 0.02 0.02 0.01 0.01 0.01 0.01 0.01 0.02 0.02 0.02 0.01 0.02 0.02 0.02 0.02 0.02 0.02 0.03 0.03 0.03 0.03 0.04 0.05 0.06 0.06 0.05 0.03 0.03 0.03 0.04 0.06 0.06 0.07 0.06 0.05
0.03 0.01 0.01 0.01 0.02 0.02 0.03 0.03 0.03 0.02 0.02 0.02 0.02 0.02 0.02 0.02 0.02 0.02 0.02 0.02 0.02 0.02 0.03 0.04 0.05 0.05 0.05 0.04 0.04 0.04 0.03 0.03 0.04 0.05 0.04 0.04 0.04 0.04
0.02 0.01 0.01 0.01 0.02 0.04 0.05 0.06 0.04 0.04 0.03 0.03 0.03 0.03 0.03 0.03 0.03 0.02 0.03 0.03 0.03 0.03 0.03 0.03 0.03 0.03 0.03 0.03 0.03 0.03 0.03 0.03 0.04 0.06 0.06 0.06 0.05 0.06
0.02 0.02 0.03 0.04 0.04 0.05 0.06 0.08 0.07 0.07 0.05 0.04 0.04 0.04 0.04 0.04 0.04 0.04 0.05 0.06 0.05 0.04 0.04 0.03 0.03 0.03 0.03 0.03 0.03 0.02 0.02 0.03 0.03 0.03 0.05 0.07 0.07 0.06
0.02 0.03 0.03 0.03 0.04 0.05 0.06 0.07 0.08 0.09 0.08 0.06 0.05 0.06 0.06 0.06 0.06 0.06 0.07 0.07 0.07 0.07 0.06 0.04 0.04 0.04 0.04 0.04 0.03 0.02 0.02 0.02 0.03 0.03 0.03 0.04 0.05 0.06
0.02 0.02 0.02 0.02 0.02 0.03 0.04 0.05 0.06 0.08 0.09 0.09 0.08 0.07 0.08 0.08 0.08 0.08 0.08 0.07 0.07 0.06 0.06 0.05 0.05 0.05 0.05 0.05 0.04 0.04 0.03 0.02 0.02 0.02 0.01 0.02 0.04 0.05
MSLP
1017.09 1017.23 1017.39 1017.54 1017.66 1017.72 1017.69 1017.57 1017.39 1017.18 1016.95 1016.76 1016.62 1016.55 1016.56 1016.63 1016.76 1016.93 1017.13 1017.34 1017.57 1017.80 1018.04 1018.28 1018.52 1018.76 1018.96 1019.13 1019.24 1019.30 1019.28 1019.20 1019.07 1018.88 1018.66 1018.43 1018.20 1017.99
1016.63 1016.71 1016.82 1016.95 1017.06 1017.13 1017.15 1017.11 1017.02 1016.89 1016.77 1016.66 1016.60 1016.59 1016.64 1016.74 1016.89 1017.07 1017.28 1017.50 1017.74 1017.98 1018.24 1018.50 1018.76 1019.01 1019.22 1019.39 1019.51 1019.56 1019.54 1019.46 1019.32 1019.14 1018.93 1018.71 1018.48 1018.27
1016.17 1016.19 1016.25 1016.34 1016.44 1016.53 1016.59 1016.61 1016.61 1016.59 1016.57 1016.57 1016.59 1016.66 1016.77 1016.91 1017.08 1017.27 1017.48 1017.70 1017.93 1018.17 1018.42 1018.67 1018.92 1019.16 1019.36 1019.53 1019.64 1019.69 1019.69 1019.63 1019.52 1019.38 1019.21 1019.03 1018.84 1018.65
1015.73 1015.70 1015.71 1015.76 1015.83 1015.92 1016.01 1016.09 1016.16 1016.23 1016.31 1016.40 1016.52 1016.66 1016.82 1017.01 1017.21 1017.41 1017.62 1017.83 1018.05 1018.28 1018.50 1018.73 1018.96 1019.17 1019.35 1019.51 1019.62 1019.68 1019.71 1019.69 1019.64 1019.56 1019.46 1019.34 1019.21 1019.07
1015.27 1015.19 1015.15 1015.16 1015.21 1015.28 1015.38 1015.49 1015.61 1015.75 1015.90 1016.06 1016.25 1016.46 1016.67 1016.90 1017.12 1017.35 1017.56 1017.78 1017.99 1018.20 1018.41 1018.63 1018.83 1019.02 1019.19 1019.34 1019.45 1019.54 1019.60 1019.63 1019.65 1019.65 1019.63 1019.60 1019.54 1019.46
1014.70 1014.59 1014.51 1014.48 1014.50 1014.55 1014.63 1014.75 1014.89 1015.05 1015.24 1015.46 1015.69 1015.94 1016.20 1016.46 1016.72 1016.97 1017.21 1017.44 1017.67 1017.89 1018.11 1018.32 1018.53 1018.72 1018.89 1019.05 1019.18 1019.29 1019.39 1019.48 1019.56 1019.63 1019.70 1019.74 1019.76 1019.74
1013.95 1013.82 1013.72 1013.66 1013.64 1013.65 1013.71 1013.81 1013.94 1014.11 1014.31 1014.54 1014.80 1015.08 1015.37 1015.66 1015.95 1016.24 1016.52 1016.79 1017.06 1017.33 1017.58 1017.83 1018.07 1018.29 1018.49 1018.67 1018.84 1018.98 1019.12 1019.26 1019.39 1019.53 1019.66 1019.77 1019.86 1019.90
1012.99 1012.85 1012.74 1012.65 1012.60 1012.59 1012.61 1012.67 1012.78 1012.93 1013.12 1013.35 1013.61 1013.90 1014.21 1014.54 1014.87 1015.21 1015.54 1015.88 1016.22 1016.55 1016.88 1017.20 1017.50 1017.78 1018.04 1018.27 1018.47 1018.66 1018.83 1019.01 1019.18 1019.36 1019.53 1019.69 1019.83 1019.92
1011.84 1011.71 1011.60 1011.50 1011.42 1011.38 1011.37 1011.40 1011.48 1011.60 1011.77 1011.99 1012.25 1012.55 1012.88 1013.23 1013.60 1013.99 1014.39 1014.80 1015.22 1015.64 1016.06 1016.47 1016.86 1017.22 1017.55 1017.84 1018.10 1018.33 1018.55 1018.75 1018.95 1019.15 1019.34 1019.53 1019.70 1019.83
1010.59 1010.47 1010.36 1010.26 1010.18 1010.12 1010.09 1010.10 1010.15 1010.26 1010.41 1010.62 1010.88 1011.18 1011.53 1011.91 1012.31 1012.75 1013.20 1013.68 1014.18 1014.68 1015.19 1015.69 1016.17 1016.62 1017.04 1017.40 1017.73 1018.01 1018.26 1018.49 1018.70 1018.91 1019.12 1019.32 1019.51 1019.67
1009.35 1009.25 1009.14 1009.05 1008.96 1008.90 1008.87 1008.87 1008.92 1009.02 1009.17 1009.38 1009.65 1009.96 1010.32 1010.72 1011.15 1011.62 1012.11 1012.63 1013.17 1013.74 1014.31 1014.88 1015.44 1015.97 1016.46 1016.90 1017.29 1017.63 1017.92 1018.18 1018.42 1018.65 1018.86 1019.07 1019.28 1019.46
1008.22 1008.12 1008.02 1007.93 1007.85 1007.79 1007.76 1007.77 1007.83 1007.94 1008.10 1008.33 1008.62 1008.95 1009.33 1009.74 1010.18 1010.65 1011.16 1011.68 1012.24 1012.82 1013.42 1014.03 1014.63 1015.22 1015.77 1016.28 1016.73 1017.13 1017.48 1017.79 1018.06 1018.31 1018.55 1018.78 1019.01 1019.22
1007.23 1007.12 1007.02 1006.93 1006.85 1006.79 1006.77 1006.79 1006.86 1006.99 1007.18 1007.44 1007.75 1008.11 1008.51 1008.93 1009.37 1009.84 1010.32 1010.82 1011.35 1011.90 1012.49 1013.09 1013.70 1014.32 1014.91 1015.47 1015.98 1016.45 1016.86 1017.23 1017.56 1017.86 1018.14 1018.41 1018.67 1018.93
1006.37 1006.24 1006.11 1006.00 1005.90 1005.83 1005.80 1005.82 1005.91 1006.07 1006.29 1006.59 1006.94 1007.33 1007.75 1008.18 1008.62 1009.06 1009.50 1009.95 1010.42 1010.92 1011.46 1012.02 1012.61 1013.22 1013.83 1014.43 1015.00 1015.54 1016.02 1016.47 1016.87 1017.24 1017.58 1017.91 1018.22 1018.53
1005.56 1005.39 1005.22 1005.06 1004.92 1004.82 1004.76 1004.77 1004.85 1005.02 1005.28 1005.61 1006.00 1006.42 1006.87 1007.32 1007.76 1008.18 1008.58 1008.98 1009.39 1009.82 1010.29 1010.80 1011.35 1011.94 1012.56 1013.18 1013.80 1014.40 1014.96 1015.49 1015.98 1016.43 1016.84 1017.24 1017.61 1017.97
1004.74 1004.50 1004.26 1004.04 1003.83 1003.66 1003.54 1003.51 1003.58 1003.74 1004.01 1004.36 1004.79 1005.26 1005.74 1006.21 1006.66 1007.08 1007.46 1007.83 1008.19 1008.57 1008.98 1009.44 1009.95 1010.52 1011.14 1011.78 1012.44 1013.10 1013.73 1014.33 1014.90 1015.43 1015.92 1016.38 1016.82 1017.24
1003.86 1003.55 1003.23 1002.91 1002.60 1002.34 1002.15 1002.05 1002.06 1002.19 1002.45 1002.81 1003.26 1003.75 1004.27 1004.78 1005.26 1005.70 1006.09 1006.46 1006.81 1007.16 1007.55 1007.99 1008.49 1009.05 1009.67 1010.34 1011.03 1011.73 1012.42 1013.08 1013.71 1014.30 1014.85 1015.37 1015.86 1016.32
1002.97 1002.59 1002.17 1001.75 1001.34 1000.96 1000.66 1000.47 1000.40 1000.47 1000.68 1001.02 1001.46 1001.97 1002.51 1003.06 1003.58 1004.05 1004.49 1004.89 1005.27 1005.66 1006.07 1006.53 1007.05 1007.63 1008.27 1008.96 1009.68 1010.41 1011.13 1011.83 1012.49 1013.11 1013.70 1014.25 1014.77 1015.26
1002.20 1001.74 1001.24 1000.72 1000.19 999.70 999.28 998.97 998.80 998.78 998.91 999.18 999.58 1000.07 1000.61 1001.16 1001.71 1002.24 1002.73 1003.20 1003.65 1004.11 1004.59 1005.12 1005.70 1006.33 1007.01 1007.74 1008.48 1009.23 1009.97 1010.67 1011.34 1011.96 1012.55 1013.10 1013.62 1014.13
1001.69 1001.18 1000.62 1000.01 999.38 998.78 998.24 997.81 997.51 997.36 997.37 997.54 997.84 998.26 998.74 999.28 999.83 1000.38 1000.92 1001.46 1002.00 1002.56 1003.14 1003.77 1004.44 1005.16 1005.91 1006.68 1007.46 1008.22 1008.96 1009.66 1010.30 1010.91 1011.47 1012.00 1012.51 1013.01
1001.60 1001.06 1000.44 999.77 999.07 998.38 997.74 997.18 996.74 996.44 996.30 996.31 996.46 996.74 997.11 997.55 998.05 998.58 999.14 999.73 1000.35 1001.00 1001.70 1002.45 1003.23 1004.06 1004.90 1005.74 1006.56 1007.35 1008.09 1008.77 1009.40 1009.97 1010.50 1011.00 1011.48 1011.97
1001.97 1001.42 1000.80 1000.10 999.35 998.59 997.86 997.18 996.60 996.14 995.81 995.62 995.56 995.64 995.82 996.10 996.47 996.92 997.43 998.02 998.68 999.42 1000.21 1001.07 1001.98 1002.91 1003.86 1004.79 1005.68 1006.51 1007.27 1007.96 1008.57 1009.12 1009.62 1010.10 1010.56 1011.04
1002.77 1002.24 1001.62 1000.92 1000.16 999.36 998.56 997.79 997.08 996.44 995.90 995.48 995.17 994.99 994.92 994.97 995.14 995.42 995.82 996.34 996.98 997.74 998.60 999.55 1000.56 1001.61 1002.66 1003.69 1004.66 1005.56 1006.37 1007.09 1007.73 1008.29 1008.79 1009.27 1009.74 1010.22
Thickness
5745 5743 5741 5739 5737 5735 5732 5729 5723 5718 5718 5720 5721 5721 5719 5717 5715 5713 5711 5709 5707 5705 5703 5700 5698 5696 5694 5692 5690 5689 5688 5686 5684 5682 5681 5679 5678 5676
5744 5742 5739 5738 5736 5733 5731 5728 5725 5721 5717 5719 5718 5718 5717 5715 5713 5710 5709 5706 5704 5702 5699 5697 5695 5693 5691 5689 5687 5686 5684 5682 5680 5678 5677 5675 5674 5673
5742 5740 5737 5736 5733 5731 5729 5726 5723 5720 5716 5717 5716 5716 5714 5712 5710 5708 5705 5703 5701 5699 5697 5694 5692 5690 5688 5686 5684 5682 5680 5678 5676 5675 5673 5672 5671 5670
5739 5737 5735 5734 5731 5729 5727 5724 5721 5719 5716 5713 5713 5712 5710 5708 5706 5703 5702 5699 5697 5696 5694 5692 5690 5687 5685 5683 5681 5679 5677 5675 5673 5671 5669 5668 5667 5665
5737 5735 5733 5731 5728 5726 5724 5721 5719 5718 5714 5711 5710 5708 5706 5704 5701 5700 5698 5696 5694 5693 5691 5689 5686 5684 5682 5680 5678 5677 5675 5673 5670 5669 5666 5664 5663 5661
5735 5733 5731 5729 5727 5724 5722 5719 5716 5713 5711 5707 5705 5704 5701 5699 5696 5694 5693 5692 5690 5690 5688 5686 5683 5681 5679 5677 5675 5674 5672 5670 5668 5666 5663 5661 5659 5657
5733 5731 5730 5728 5726 5723 5720 5717 5713 5710 5706 5703 5701 5699 5697 5694 5692 5690 5688 5688 5687 5685 5683 5682 5680 5678 5676 5674 5672 5671 5669 5667 5664 5662 5660 5657 5656 5654
5729 5728 5727 5725 5723 5720 5717 5714 5711 5707 5703 5699 5697 5695 5694 5692 5689 5686 5683 5680 5680 5682 5678 5678 5675 5673 5672 5670 5669 5667 5665 5663 5661 5658 5656 5654 5651 5650
5726 5724 5723 5722 5719 5716 5713 5711 5708 5705 5702 5699 5695 5693 5691 5690 5686 5682 5679 5677 5676 5676 5672 5672 5671 5669 5669 5667 5665 5663 5661 5658 5656 5654 5652 5650 5648 5646
5723 5721 5719 5717 5715 5712 5709 5706 5703 5701 5699 5696 5693 5692 5690 5687 5683 5680 5676 5673 5672 5670 5667 5666 5667 5665 5665 5663 5662 5659 5657 5654 5652 5650 5648 5646 5644 5642
5721 5718 5715 5712 5710 5706 5702 5700 5698 5696 5695 5692 5690 5688 5686 5682 5678 5673 5670 5667 5666 5666 5663 5661 5662 5660 5659 5658 5657 5655 5652 5650 5648 5646 5643 5641 5639 5636
5715 5713 5710 5707 5704 5700 5697 5694 5691 5691 5688 5687 5684 5682 5680 5678 5674 5669 5667 5662 5660 5661 5661 5656 5655 5652 5652 5654 5651 5650 5647 5645 5642 5640 5638 5636 5633 5630
5709 5707 5706 5701 5698 5695 5692 5689 5687 5684 5682 5680 5678 5676 5675 5673 5670 5666 5662 5659 5656 5656 5656 5651 5649 5646 5644 5645 5645 5644 5642 5639 5636 5634 5632 5629 5627 5624
5704 5703 5700 5696 5692 5689 5686 5684 5681 5677 5674 5672 5671 5670 5668 5667 5664 5661 5658 5655 5653 5652 5651 5647 5644 5641 5638 5637 5638 5638 5635 5633 5631 5629 5626 5624 5621 5619
5700 5698 5694 5690 5687 5684 5681 5677 5673 5670 5667 5665 5664 5663 5662 5660 5657 5655 5652 5649 5647 5645 5643 5641 5638 5636 5633 5632 5632 5630 5629 5628 5624 5622 5620 5618 5616 5613
5692 5690 5687 5684 5680 5678 5674 5671 5667 5664 5661 5659 5658 5656 5655 5652 5649 5647 5644 5642 5639 5639 5637 5635 5633 5630 5628 5626 5625 5623 5622 5620 5619 5616 5614 5612 5610 5608
5683 5681 5679 5677 5674 5671 5668 5665 5661 5657 5654 5652 5650 5648 5646 5644 5642 5639 5635 5633 5631 5631 5631 5629 5626 5623 5621 5619 5617 5617 5615 5613 5613 5611 5607 5606 5605 5603
5674 5673 5672 5669 5667 5665 5661 5658 5654 5651 5648 5645 5643 5640 5638 5635 5633 5630 5627 5625 5624 5623 5622 5620 5618 5615 5612 5611 5609 5609 5608 5606 5605 5602 5601 5599 5600 5599
5667 5667 5665 5662 5660 5658 5654 5651 5648 5645 5641 5637 5635 5632 5630 5627 5624 5622 5619 5617 5615 5614 5613 5611 5609 5607 5605 5605 5605 5601 5600 5599 5597 5596 5594 5593 5594 5594
5660 5659 5658 5656 5653 5650 5647 5644 5641 5637 5633 5630 5628 5625 5622 5620 5617 5614 5611 5609 5608 5606 5605 5603 5601 5599 5598 5597 5596 5595 5592 5592 5591 5589 5588 5587 5587 5587
5653 5651 5649 5648 5645 5642 5639 5636 5632 5629 5626 5623 5621 5618 5615 5612 5609 5607 5604 5601 5599 5598 5597 5597 5595 5591 5589 5587 5586 5587 5586 5585 5585 5583 5582 5581 5580 5581
5644 5642 5640 5638 5636 5633 5630 5626 5623 5620 5617 5615 5613 5609 5606 5603 5601 5599 5596 5594 5593 5590 5589 5588 5585 5582 5580 5579 5579 5579 5579 5578 5576 5576 5575 5576 5576 5577
5634 5632 5630 5628 5625 5623 5620 5617 5614 5611 5609 5606 5604 5600 5597 5595 5593 5591 5589 5586 5584 5582 5580 5577 5576 5574 5572 5571 5570 5571 5570 5570 5569 5569 5569 5569 5569 5570